CW3846 Weather Reports


Display with metric or nautical units.
time (UTC)temp
F
wind
direction
speed
MPH
gust
MPH
rain 1hr
in
rain 24hr
in
rain mn
in
humidity
%
barometer
mb
20260502181546 89 0 0.0 1.0 0.00 0.00 0.00 16 1013.6
20260502181031 89 0 0.0 1.0 0.00 0.00 0.00 16 1013.6
20260502180530 89 0 0.0 1.0 0.00 0.00 0.00 16 1013.7
20260502164027 84 0 0.0 0.0 0.00 0.00 0.00 19 1013.9
20260502163533 84 0 0.0 0.0 0.00 0.00 0.00 19 1013.9
20260502163050 84 0 0.0 0.0 0.00 0.00 0.00 20 1013.9
20260502162527 83 0 0.0 0.0 0.00 0.00 0.00 20 1014.0
20260502162034 83 0 0.0 0.0 0.00 0.00 0.00 19 1013.9
20260502161545 83 0 0.0 0.0 0.00 0.00 0.00 21 1014.0
20260502161031 83 0 0.0 0.0 0.00 0.00 0.00 21 1013.9
20260502160531 83 0 0.0 1.0 0.00 0.00 0.00 21 1014.0
20260502152030 80 0 0.0 0.0 0.00 0.00 0.00 23 1013.5
20260502151553 79 0 0.0 0.0 0.00 0.00 0.00 22 1013.5
20260502151030 79 0 0.0 0.0 0.00 0.00 0.00 22 1013.5
20260502150530 78 0 0.0 0.0 0.00 0.00 0.00 23 1013.4
20260502130530 71 0 0.0 0.0 0.00 0.00 0.00 19 1012.2
20260502123529 71 0 0.0 0.0 0.00 0.00 0.00 20 1011.8
20260502123045 71 0 0.0 0.0 0.00 0.00 0.00 20 1011.7
20260502122530 71 0 0.0 0.0 0.00 0.00 0.00 20 1011.7
20260502122035 71 0 0.0 0.0 0.00 0.00 0.00 20 1011.7
20260502121551 71 0 0.0 0.0 0.00 0.00 0.00 20 1011.5
20260502121034 71 0 0.0 1.0 0.00 0.00 0.00 20 1011.5
20260502120531 71 0 0.0 1.0 0.00 0.00 0.00 20 1011.5
20260502115530 71 0 0.0 1.0 0.00 0.00 0.00 19 1011.5
20260502115030 71 0 0.0 1.0 0.00 0.00 0.00 19 1011.5
20260502114602 71 0 0.0 0.0 0.00 0.00 0.00 19 1011.5
20260502114033 72 0 0.0 0.0 0.00 0.00 0.00 20 1011.5
20260502113530 72 0 0.0 0.0 0.00 0.00 0.00 19 1011.4
20260502113048 72 0 0.0 0.0 0.00 0.00 0.00 19 1011.4
20260502112532 72 0 0.0 0.0 0.00 0.00 0.00 20 1011.4
20260502112030 72 0 0.0 6.0 0.00 0.00 0.00 20 1011.3
20260502111550 72 0 0.0 6.0 0.00 0.00 0.00 21 1011.3
20260502111030 71 0 0.0 4.0 0.00 0.00 0.00 21 1011.2
20260502110530 71 0 0.0 4.0 0.00 0.00 0.00 21 1011.2
20260502110044 71 98 0.0 3.0 0.00 0.00 0.00 22 1011.1
20260502105531 71 113 0.0 3.0 0.00 0.00 0.00 22 1011.1
20260502105030 71 108 1.0 2.0 0.00 0.00 0.00 21 1011.2
20260502104548 72 0 0.0 0.0 0.00 0.00 0.00 21 1011.3
20260502104031 72 0 0.0 0.0 0.00 0.00 0.00 21 1011.4
20260502103531 73 0 0.0 0.0 0.00 0.00 0.00 21 1011.3
20260502103040 73 0 0.0 0.0 0.00 0.00 0.00 21 1011.2
20260502102533 73 0 0.0 0.0 0.00 0.00 0.00 20 1011.2
20260502102032 73 0 0.0 0.0 0.00 0.00 0.00 20 1011.2
20260502101612 72 0 0.0 0.0 0.00 0.00 0.00 20 1011.0
20260502101032 72 0 0.0 0.0 0.00 0.00 0.00 20 1011.0
20260502100530 72 0 0.0 2.0 0.00 0.00 0.00 20 1010.8
20260502091032 71 0 0.0 0.0 0.00 0.00 0.00 18 1010.7
20260502090530 70 0 0.0 0.0 0.00 0.00 0.00 18 1010.7
20260502090104 70 0 0.0 0.0 0.00 0.00 0.00 18 1010.8
20260502071030 75 0 0.0 0.0 0.00 0.00 0.00 14 1010.5
20260502070529 75 0 0.0 0.0 0.00 0.00 0.00 14 1010.3
20260502070055 75 0 0.0 0.0 0.00 0.00 0.00 14 1010.3
20260502065530 75 0 0.0 0.0 0.00 0.00 0.00 14 1010.2
20260502065031 76 0 0.0 0.0 0.00 0.00 0.00 14 1010.2
20260502064548 76 0 0.0 0.0 0.00 0.00 0.00 14 1010.2
20260502064029 76 0 0.0 0.0 0.00 0.00 0.00 14 1010.2
20260502063529 76 0 0.0 0.0 0.00 0.00 0.00 14 1010.4
20260502063042 76 0 0.0 0.0 0.00 0.00 0.00 14 1010.3
20260502062535 76 0 0.0 0.0 0.00 0.00 0.00 13 1010.2
20260502062032 76 0 0.0 0.0 0.00 0.00 0.00 14 1010.3
20260502061545 76 0 0.0 0.0 0.00 0.00 0.00 14 1010.3
20260502061030 76 0 0.0 0.0 0.00 0.00 0.00 13 1010.3
20260502060530 76 0 0.0 0.0 0.00 0.00 0.00 13 1010.3
20260502060052 76 0 0.0 0.0 0.00 0.00 0.00 13 1010.3
20260502055532 76 0 0.0 0.0 0.00 0.00 0.00 13 1010.3
20260502055034 76 0 0.0 0.0 0.00 0.00 0.00 13 1010.1
20260502054543 76 0 0.0 0.0 0.00 0.00 0.00 13 1010.2
20260502054029 76 0 0.0 0.0 0.00 0.00 0.00 13 1010.1
20260502053530 76 0 0.0 0.0 0.00 0.00 0.00 13 1010.1
20260502053049 76 0 0.0 0.0 0.00 0.00 0.00 13 1010.2
20260502052532 76 0 0.0 0.0 0.00 0.00 0.00 13 1010.1
20260502052032 76 0 0.0 0.0 0.00 0.00 0.00 12 1010.1
20260502051604 77 0 0.0 0.0 0.00 0.00 0.00 12 1010.0
20260502051030 77 0 0.0 0.0 0.00 0.00 0.00 12 1010.1
20260502050533 77 0 0.0 0.0 0.00 0.00 0.00 13 1010.0
20260502050047 77 0 0.0 0.0 0.00 0.00 0.00 13 1010.0
20260502045530 77 0 0.0 0.0 0.00 0.00 0.00 13 1009.9
20260502045031 78 0 0.0 0.0 0.00 0.00 0.00 13 1009.9
20260502044546 78 0 0.0 0.0 0.00 0.00 0.00 12 1009.8
20260502044030 78 0 0.0 0.0 0.00 0.00 0.00 12 1009.8
20260502043531 79 0 0.0 0.0 0.00 0.00 0.00 12 1009.8
20260502043044 79 0 0.0 0.0 0.00 0.00 0.00 12 1009.7
20260502042529 79 0 0.0 0.0 0.00 0.00 0.00 12 1009.7
20260502042029 79 0 0.0 0.0 0.00 0.00 0.00 12 1009.6
20260502041541 79 0 0.0 0.0 0.00 0.00 0.00 12 1009.5
20260502041030 80 0 0.0 0.0 0.00 0.00 0.00 11 1009.4
20260502040534 80 0 0.0 0.0 0.00 0.00 0.00 11 1009.4
20260502040056 80 0 0.0 0.0 0.00 0.00 0.00 11 1009.4
20260502035531 80 0 0.0 0.0 0.00 0.00 0.00 11 1009.3
20260502035030 81 0 0.0 0.0 0.00 0.00 0.00 11 1009.3
20260502034545 81 0 0.0 0.0 0.00 0.00 0.00 11 1009.2
20260502034032 81 0 0.0 0.0 0.00 0.00 0.00 11 1009.2
20260502033530 82 0 0.0 0.0 0.00 0.00 0.00 11 1009.1
20260502033044 82 0 0.0 0.0 0.00 0.00 0.00 10 1009.1
20260502032531 83 0 0.0 0.0 0.00 0.00 0.00 10 1009.0
20260502032030 83 0 0.0 0.0 0.00 0.00 0.00 10 1009.0
20260502031552 84 0 0.0 0.0 0.00 0.00 0.00 10 1009.0
20260502031031 84 0 0.0 0.0 0.00 0.00 0.00 10 1008.9
20260502030531 85 0 0.0 0.0 0.00 0.00 0.00 10 1008.8
20260502030047 85 0 0.0 0.0 0.00 0.00 0.00 10 1008.8
20260502025531 85 0 0.0 0.0 0.00 0.00 0.00 10 1008.7
20260502025029 85 0 0.0 0.0 0.00 0.00 0.00 10 1008.6
20260502024546 86 0 0.0 0.0 0.00 0.00 0.00 10 1008.6
20260502024031 86 0 0.0 0.0 0.00 0.00 0.00 10 1008.6
20260502023530 86 0 0.0 0.0 0.00 0.00 0.00 10 1008.6
20260502023059 87 0 0.0 0.0 0.00 0.00 0.00 10 1008.5
20260502022530 87 0 0.0 0.0 0.00 0.00 0.00 10 1008.5
20260502022030 87 0 0.0 0.0 0.00 0.00 0.00 10 1008.4
20260502021543 87 0 0.0 0.0 0.00 0.00 0.00 10 1008.4
20260502021030 87 0 0.0 0.0 0.00 0.00 0.00 10 1008.3
20260502020530 88 0 0.0 0.0 0.00 0.00 0.00 10 1008.3
20260502020059 88 0 0.0 0.0 0.00 0.00 0.00 10 1008.3
20260502015530 88 0 0.0 0.0 0.00 0.00 0.00 10 1008.2
20260502015030 88 0 0.0 0.0 0.00 0.00 0.00 10 1008.3
20260502014537 88 0 0.0 0.0 0.00 0.00 0.00 9 1008.2
20260502014031 88 0 0.0 0.0 0.00 0.00 0.00 9 1008.2
20260502013531 89 0 0.0 0.0 0.00 0.00 0.00 9 1008.2
20260502013100 89 0 0.0 0.0 0.00 0.00 0.00 9 1008.2
20260502012531 89 0 0.0 0.0 0.00 0.00 0.00 9 1008.2
20260502012030 89 0 0.0 0.0 0.00 0.00 0.00 9 1008.2
20260502011543 89 0 0.0 0.0 0.00 0.00 0.00 9 1008.2
20260502011031 89 0 0.0 0.0 0.00 0.00 0.00 9 1008.1
20260502010530 89 0 0.0 1.0 0.00 0.00 0.00 10 1008.2
20260502010042 90 0 0.0 1.0 0.00 0.00 0.00 10 1008.3
20260502005531 90 0 0.0 1.0 0.00 0.00 0.00 10 1008.3
20260502005031 90 0 0.0 1.0 0.00 0.00 0.00 10 1008.3
20260502004601 90 0 0.0 1.0 0.00 0.00 0.00 10 1008.3
20260502004029 90 0 0.0 1.0 0.00 0.00 0.00 10 1008.2
20260502003530 90 0 0.0 1.0 0.00 0.00 0.00 10 1008.4
20260502003050 90 0 0.0 0.0 0.00 0.00 0.00 10 1008.3
20260502002529 90 0 0.0 0.0 0.00 0.00 0.00 10 1008.3
20260502002029 90 0 0.0 4.0 0.00 0.00 0.00 10 1008.4
20260502001603 90 0 0.0 4.0 0.00 0.00 0.00 11 1008.3
20260502001031 90 0 0.0 1.0 0.00 0.00 0.00 10 1008.4
20260502000530 90 0 0.0 1.0 0.00 0.00 0.00 11 1008.5
20260502000043 90 0 0.0 1.0 0.00 0.00 0.00 11 1008.5
20260501235533 90 0 0.0 1.0 0.00 0.00 0.00 10 1008.5
20260501235030 90 0 0.0 1.0 0.00 0.00 0.00 11 1008.6
20260501234555 90 0 0.0 1.0 0.00 0.00 0.00 11 1008.5
20260501234030 90 0 0.0 1.0 0.00 0.00 0.00 11 1008.5
20260501233530 90 0 0.0 1.0 0.00 0.00 0.00 11 1008.5
20260501233054 90 0 0.0 0.0 0.00 0.00 0.00 11 1008.5
20260501232531 90 0 0.0 3.0 0.00 0.00 0.00 11 1008.6
20260501232033 90 0 0.0 4.0 0.00 0.00 0.00 12 1008.6
20260501231544 90 0 0.0 4.0 0.00 0.00 0.00 11 1008.6
20260501231029 91 0 0.0 2.0 0.00 0.00 0.00 10 1008.7
20260501230534 90 0 0.0 2.0 0.00 0.00 0.00 11 1008.7
20260501230044 90 0 0.0 2.0 0.00 0.00 0.00 11 1008.7
20260501225530 90 0 0.0 2.0 0.00 0.00 0.00 12 1008.8
20260501225032 90 0 0.0 2.0 0.00 0.00 0.00 12 1008.8
20260501224543 89 0 0.0 3.0 0.00 0.00 0.00 12 1008.9
20260501224032 89 0 0.0 4.0 0.00 0.00 0.00 12 1008.9
20260501223529 90 0 0.0 4.0 0.00 0.00 0.00 13 1009.0
20260501223044 90 0 0.0 1.0 0.00 0.00 0.00 12 1009.0
20260501222529 90 0 0.0 1.0 0.00 0.00 0.00 13 1009.1
20260501222032 90 0 0.0 4.0 0.00 0.00 0.00 14 1009.2
20260501221543 90 0 0.0 4.0 0.00 0.00 0.00 14 1009.2
20260501221030 90 0 0.0 4.0 0.00 0.00 0.00 14 1009.2
20260501220529 90 0 0.0 1.0 0.00 0.00 0.00 15 1009.3
20260501220116 90 0 0.0 1.0 0.00 0.00 0.00 15 1009.4
20260501215530 90 0 0.0 1.0 0.00 0.00 0.00 15 1009.5
20260501215033 90 0 0.0 2.0 0.00 0.00 0.00 15 1009.7
20260501214544 90 0 0.0 2.0 0.00 0.00 0.00 16 1009.7
20260501214029 90 0 0.0 1.0 0.00 0.00 0.00 16 1009.7
20260501213532 90 0 0.0 1.0 0.00 0.00 0.00 16 1009.8
20260501213043 89 0 0.0 1.0 0.00 0.00 0.00 15 1009.9
20260501212529 89 0 0.0 0.0 0.00 0.00 0.00 15 1009.9
20260501212031 89 0 0.0 0.0 0.00 0.00 0.00 15 1010.0
20260501211542 88 0 0.0 3.0 0.00 0.00 0.00 15 1010.1
20260501211031 88 0 0.0 3.0 0.00 0.00 0.00 14 1010.1
20260501210529 88 0 0.0 2.0 0.00 0.00 0.00 14 1010.2
20260501205530 87 0 0.0 2.0 0.00 0.00 0.00 15 1010.3
20260501205031 87 0 0.0 2.0 0.00 0.00 0.00 15 1010.5
20260501204545 87 0 0.0 3.0 0.00 0.00 0.00 16 1010.6
20260501204029 87 0 0.0 3.0 0.00 0.00 0.00 16 1010.6
20260501203530 87 163 0.0 1.0 0.00 0.00 0.00 16 1010.6
20260501203044 86 0 0.0 2.0 0.00 0.00 0.00 16 1010.7
20260501202529 86 0 0.0 3.0 0.00 0.00 0.00 17 1010.8
20260501202030 86 0 0.0 3.0 0.00 0.00 0.00 17 1010.9
20260501201545 86 121 0.0 3.0 0.00 0.00 0.00 16 1010.7
20260501201031 87 0 0.0 3.0 0.00 0.00 0.00 17 1010.9
20260501200530 87 242 0.0 2.0 0.00 0.00 0.00 17 1010.9
20260501200049 87 0 0.0 1.0 0.00 0.00 0.00 17 1010.9
20260501195532 87 0 0.0 0.0 0.00 0.00 0.00 17 1011.0
20260501195118 86 0 0.0 1.0 0.00 0.00 0.00 17 1011.1
20260501194546 86 0 0.0 2.0 0.00 0.00 0.00 18 1011.2
20260501194029 86 0 0.0 2.0 0.00 0.00 0.00 17 1011.3
20260501193547 85 0 0.0 2.0 0.00 0.00 0.00 18 1011.4
20260501193048 85 0 0.0 2.0 0.00 0.00 0.00 18 1011.4
20260501192531 85 0 0.0 2.0 0.00 0.00 0.00 18 1011.5
20260501192031 85 0 0.0 1.0 0.00 0.00 0.00 18 1011.6
20260501191543 85 0 0.0 1.0 0.00 0.00 0.00 18 1011.7
20260501191032 85 0 0.0 1.0 0.00 0.00 0.00 18 1011.7
20260501190534 85 0 0.0 1.0 0.00 0.00 0.00 18 1011.8
20260501190042 84 0 0.0 0.0 0.00 0.00 0.00 19 1011.8
20260501185530 84 0 0.0 0.0 0.00 0.00 0.00 20 1011.8
20260501185030 83 0 0.0 1.0 0.00 0.00 0.00 20 1011.9
20260501184546 83 0 0.0 1.0 0.00 0.00 0.00 19 1011.9
20260501184030 83 0 0.0 0.0 0.00 0.00 0.00 20 1012.0
20260501183530 83 0 0.0 0.0 0.00 0.00 0.00 19 1012.0
20260501183058 83 0 0.0 1.0 0.00 0.00 0.00 20 1012.1
20260501182529 82 0 0.0 1.0 0.00 0.00 0.00 20 1012.1
20260501182032 82 0 0.0 1.0 0.00 0.00 0.00 21 1012.2